When you browse on this site, cookies collect data to enhance your experience and personalize the content and advertising you see.
Visit our Privacy Policy to learn more. By continuing to use the site, you agree to this use of cookies and data.

Stündliche Wetter Hlushyts'ke

Heute, 7 August, Freitag

Zeit Temperatur Niederschläge Wind Luftdruck Luftfeuchtigkeit
00:00 +20°C° 0 mm 2 m/S 754 mmHg 95%
01:00 +20°C° 0 mm 2 m/S 754 mmHg 96%
02:00 +20°C° 0 mm 2 m/S 754 mmHg 96%
03:00 +20°C° 0 mm 2 m/S 754 mmHg 97%
04:00 +19°C° 0 mm 2 m/S 754 mmHg 97%
05:00 +19°C° 0 mm 3 m/S 754 mmHg 97%
06:00 +20°C° 0 mm 3 m/S 754 mmHg 93%
07:00 +21°C° 0 mm 3 m/S 755 mmHg 89%
08:00 +22°C° 0 mm 3 m/S 755 mmHg 85%
09:00 +25°C° 0.1 mm 3 m/S 755 mmHg 79%
10:00 +27°C° 0.1 mm 3 m/S 755 mmHg 72%
11:00 +28°C° 0.1 mm 4 m/S 755 mmHg 66%
12:00 +29°C° 0.4 mm 3 m/S 755 mmHg 64%
13:00 +29°C° 0.4 mm 3 m/S 755 mmHg 62%
14:00 +29°C° 0.4 mm 3 m/S 754 mmHg 60%
15:00 +29°C° 0.4 mm 3 m/S 754 mmHg 61%
16:00 +29°C° 0.4 mm 3 m/S 754 mmHg 63%
17:00 +28°C° 0.4 mm 3 m/S 754 mmHg 65%
18:00 +27°C° 0 mm 3 m/S 754 mmHg 68%
19:00 +25°C° 0 mm 3 m/S 754 mmHg 72%
20:00 +22°C° 0 mm 3 m/S 754 mmHg 75%
21:00 +21°C° 0 mm 3 m/S 754 mmHg 77%
22:00 +20°C° 0 mm 3 m/S 754 mmHg 80%
23:00 +20°C° 0 mm 3 m/S 754 mmHg 83%

Morgen, 8 August, Samstag

Zeit Temperatur Niederschläge Wind Luftdruck Luftfeuchtigkeit
00:00 +19°C° 0 mm 3 m/S 754 mmHg 86%
01:00 +19°C° 0 mm 2 m/S 754 mmHg 89%
02:00 +18°C° 0 mm 2 m/S 754 mmHg 92%
03:00 +18°C° 0 mm 2 m/S 754 mmHg 93%
04:00 +18°C° 0 mm 2 m/S 754 mmHg 94%
05:00 +17°C° 0 mm 2 m/S 754 mmHg 95%
06:00 +19°C° 0 mm 2 m/S 754 mmHg 89%
07:00 +20°C° 0 mm 2 m/S 754 mmHg 83%
08:00 +23°C° 0 mm 2 m/S 754 mmHg 78%
09:00 +24°C° 0 mm 2 m/S 754 mmHg 71%
10:00 +26°C° 0 mm 3 m/S 754 mmHg 65%
11:00 +27°C° 0 mm 3 m/S 754 mmHg 59%
12:00 +28°C° 0 mm 3 m/S 754 mmHg 56%
13:00 +29°C° 0 mm 3 m/S 753 mmHg 54%
14:00 +29°C° 0 mm 2 m/S 753 mmHg 51%
15:00 +29°C° 0 mm 3 m/S 753 mmHg 53%
16:00 +29°C° 0 mm 3 m/S 752 mmHg 56%
17:00 +28°C° 0 mm 3 m/S 752 mmHg 58%
18:00 +27°C° 0 mm 3 m/S 752 mmHg 65%
19:00 +25°C° 0 mm 2 m/S 752 mmHg 72%
20:00 +23°C° 0 mm 2 m/S 752 mmHg 80%
21:00 +21°C° 0 mm 2 m/S 752 mmHg 82%
22:00 +20°C° 0 mm 2 m/S 752 mmHg 85%
23:00 +21°C° 0 mm 1 m/S 752 mmHg 88%

übermorgen, 9 August, Sonntag

Zeit Temperatur Niederschläge Wind Luftdruck Luftfeuchtigkeit
00:00 +20°C° 0 mm 1 m/S 752 mmHg 90%
01:00 +20°C° 0 mm 1 m/S 752 mmHg 91%
02:00 +19°C° 0 mm 1 m/S 752 mmHg 93%
03:00 +19°C° 0 mm 1 m/S 751 mmHg 93%
04:00 +19°C° 0 mm 1 m/S 751 mmHg 93%
05:00 +19°C° 0 mm 1 m/S 751 mmHg 94%
06:00 +20°C° 0 mm 1 m/S 751 mmHg 88%
07:00 +20°C° 0 mm 2 m/S 751 mmHg 82%
08:00 +23°C° 0 mm 2 m/S 751 mmHg 76%
09:00 +24°C° 0 mm 2 m/S 751 mmHg 70%
10:00 +26°C° 0 mm 2 m/S 751 mmHg 64%
11:00 +27°C° 0 mm 2 m/S 751 mmHg 58%
12:00 +27°C° 0 mm 2 m/S 751 mmHg 56%
13:00 +28°C° 0 mm 2 m/S 751 mmHg 53%
14:00 +28°C° 0 mm 2 m/S 751 mmHg 51%
15:00 +28°C° 0 mm 2 m/S 750 mmHg 53%
16:00 +28°C° 0 mm 3 m/S 750 mmHg 54%
17:00 +28°C° 0 mm 3 m/S 750 mmHg 56%
18:00 +26°C° 0 mm 2 m/S 750 mmHg 63%
19:00 +24°C° 0 mm 2 m/S 750 mmHg 69%
20:00 +23°C° 0 mm 2 m/S 750 mmHg 76%
21:00 +21°C° 0 mm 2 m/S 750 mmHg 79%
22:00 +21°C° 0 mm 1 m/S 750 mmHg 81%
23:00 +20°C° 0 mm 1 m/S 750 mmHg 84%

10 August, Montag

Zeit Temperatur Niederschläge Wind Luftdruck Luftfeuchtigkeit
00:00 +20°C° 0 mm 1 m/S 750 mmHg 85%
01:00 +20°C° 0 mm 1 m/S 749 mmHg 87%
02:00 +17°C° 0 mm 0 m/S 749 mmHg 88%
03:00 +19°C° 0 mm 1 m/S 749 mmHg 88%
04:00 +19°C° 0 mm 1 m/S 749 mmHg 89%
05:00 +19°C° 0 mm 1 m/S 749 mmHg 89%
06:00 +20°C° 0 mm 1 m/S 749 mmHg 84%
07:00 +22°C° 0 mm 1 m/S 750 mmHg 79%
08:00 +23°C° 0 mm 1 m/S 750 mmHg 73%
09:00 +25°C° 0.1 mm 1 m/S 750 mmHg 68%
10:00 +26°C° 0.1 mm 1 m/S 750 mmHg 62%
11:00 +28°C° 0.1 mm 1 m/S 750 mmHg 57%
12:00 +28°C° 0.3 mm 1 m/S 750 mmHg 54%
13:00 +29°C° 0.3 mm 1 m/S 749 mmHg 52%
14:00 +29°C° 0.3 mm 1 m/S 749 mmHg 50%
15:00 +29°C° 0.2 mm 1 m/S 749 mmHg 52%
16:00 +28°C° 0.2 mm 1 m/S 749 mmHg 54%
17:00 +28°C° 0.2 mm 1 m/S 748 mmHg 57%
18:00 +26°C° 0.2 mm 1 m/S 748 mmHg 64%
19:00 +24°C° 0.2 mm 1 m/S 748 mmHg 70%
20:00 +23°C° 0.2 mm 1 m/S 748 mmHg 77%
21:00 +22°C° 0.1 mm 1 m/S 748 mmHg 79%
22:00 +19°C° 0.1 mm 0 m/S 748 mmHg 81%
23:00 +19°C° 0.1 mm 0 m/S 749 mmHg 83%

11 August, Dienstag

Zeit Temperatur Niederschläge Wind Luftdruck Luftfeuchtigkeit
00:00 +18°C° 0 mm 0 m/S 748 mmHg 84%
01:00 +18°C° 0 mm 0 m/S 748 mmHg 86%
02:00 +18°C° 0 mm 0 m/S 748 mmHg 87%
03:00 +17°C° 0 mm 0 m/S 748 mmHg 87%
04:00 +17°C° 0 mm 0 m/S 748 mmHg 88%
05:00 +17°C° 0 mm 0 m/S 748 mmHg 89%
06:00 +18°C° 0 mm 0 m/S 748 mmHg 84%
07:00 +20°C° 0 mm 0 m/S 748 mmHg 79%
08:00 +22°C° 0 mm 0 m/S 748 mmHg 74%
09:00 +23°C° 0.1 mm 0 m/S 748 mmHg 68%
10:00 +25°C° 0.1 mm 0 m/S 748 mmHg 61%
11:00 +27°C° 0.1 mm 0 m/S 748 mmHg 55%
12:00 +29°C° 0.1 mm 1 m/S 748 mmHg 52%
13:00 +30°C° 0.1 mm 1 m/S 748 mmHg 49%
14:00 +30°C° 0.1 mm 1 m/S 747 mmHg 47%
15:00 +30°C° 0 mm 1 m/S 747 mmHg 49%
16:00 +29°C° 0 mm 1 m/S 747 mmHg 52%
17:00 +29°C° 0 mm 1 m/S 747 mmHg 55%
18:00 +27°C° 0.3 mm 1 m/S 747 mmHg 62%
19:00 +25°C° 0.3 mm 1 m/S 747 mmHg 70%
20:00 +23°C° 0.3 mm 1 m/S 747 mmHg 77%
21:00 +22°C° 0.7 mm 1 m/S 747 mmHg 81%
22:00 +22°C° 0.7 mm 1 m/S 747 mmHg 85%
23:00 +21°C° 0.7 mm 1 m/S 747 mmHg 88%

12 August, Mittwoch

Zeit Temperatur Niederschläge Wind Luftdruck Luftfeuchtigkeit
00:00 +21°C° 0.6 mm 1 m/S 747 mmHg 90%
01:00 +20°C° 0.6 mm 2 m/S 747 mmHg 92%
02:00 +19°C° 0.6 mm 2 m/S 747 mmHg 94%
03:00 +19°C° 0.6 mm 2 m/S 747 mmHg 94%
04:00 +19°C° 0.6 mm 2 m/S 747 mmHg 95%
05:00 +18°C° 0.6 mm 3 m/S 747 mmHg 96%
06:00 +18°C° 0.6 mm 3 m/S 747 mmHg 95%
07:00 +18°C° 0.6 mm 3 m/S 747 mmHg 93%
08:00 +18°C° 0.6 mm 4 m/S 747 mmHg 92%
09:00 +19°C° 0.1 mm 4 m/S 747 mmHg 87%
10:00 +19°C° 0.1 mm 4 m/S 747 mmHg 82%
11:00 +20°C° 0.1 mm 4 m/S 747 mmHg 77%
12:00 +21°C° 0 mm 4 m/S 747 mmHg 71%
13:00 +22°C° 0 mm 4 m/S 747 mmHg 65%
14:00 +25°C° 0 mm 4 m/S 747 mmHg 59%
15:00 +25°C° 0 mm 4 m/S 747 mmHg 59%
16:00 +23°C° 0 mm 4 m/S 747 mmHg 59%
17:00 +23°C° 0 mm 4 m/S 747 mmHg 60%
18:00 +22°C° 0 mm 4 m/S 747 mmHg 66%
19:00 +20°C° 0 mm 4 m/S 747 mmHg 71%
20:00 +18°C° 0 mm 3 m/S 748 mmHg 77%
21:00 +17°C° 0 mm 3 m/S 748 mmHg 80%
22:00 +17°C° 0 mm 3 m/S 748 mmHg 82%
23:00 +16°C° 0 mm 3 m/S 748 mmHg 85%
Mehr zeigen